Location: Chiroubles
(46.1812°N, 4.6660°E)
Time: 01:01:49
(UTC+00:00)

Meteor 1-27 Rocket - Pass Details

Date: 15 August 2020
Orbit: 831 x 909 km, 81.3° (Epoch: 19 September)

Event Time Altitude Azimuth Distance (km) Brightness Sun altitude
Rises 19:39:37 0° 347° (NNW) 3,542 7.6 -8.6°
Reaches altitude 10° 19:42:06 10° 346° (NNW) 2,601 6.9 -9.0°
Maximum altitude 19:48:02 77° 262° (W) 936 4.1 -9.9°
Drops below altitude 10° 19:53:56 10° 177° (S) 2,581 5.9 -10.7°
Sets 19:56:23 0° 176° (S) 3,513 6.6 -11.1°
